Terminal Aerodrome Forecast
Issued by NWS

Home | Current Version | Previous Version | Text Only | Print | Product List | Glossary On
Versions: 1 2 3 4 5 6 7 8 9 10 11 12
000
FTUS45 KPIH 171100
TAFSUN
TAF
KSUN 171120Z 1712/1812 VRB05KT P6SM VCSH BKN120 BKN200
     FM171800 16010KT P6SM VCTS BKN090CB BKN180
     FM172200 24010KT P6SM VCTS SCT080CB SCT200
     FM180300 31006KT P6SM BKN100 BKN180
      AMD LTD TO CLD VIS AND WIND TIL 171300=

USA.gov is the U.S. government's official web portal to all federal, state and local government web resources and services.